Preview of NWS' New Version of Forecast
This preview is not operational and should not be used for support decisions.

Regional Weather Roundup (RWR)

Issued by National Weather Service (NWS)

                            
000
ASCA42 TJSJ 181410
RWRPR 
PUERTO RICO/U.S. VIRGIN ISLANDS HOURLY WEATHER ROUNDUP
NATIONAL WEATHER SERVICE SAN JUAN PR
1000 AM AST MON MAR 18 2019

PRZ001>002-007>008-010-181500-
PUERTO RICO
  
CITY           SKY/WX    TMP DP  RH WIND       PRES   REMARKS
SAN JUAN LMM   MOSUNNY   84  66  54 VRB6      30.06R                  
AGUADILLA      SUNNY     79  64  61 NE5       30.07R                  
$$

VIZ001>002-181500-
U.S. VIRGIN ISLANDS
  
CITY           SKY/WX    TMP DP  RH WIND       PRES   REMARKS
CHARLOTTE AMA  SUNNY     82  66  57 E20       30.07R                  
CHRISTIANSTED  MOSUNNY   82  66  57 E16G28    30.07R                  
$$

HOURLY WEATHER ROUNDUP FOR THE NEWS MEDIA
  
CITY           SKY/WX    TMP DP  RH WIND       PRES   REMARKS
ORLANDO        CLOUDY    63  51  65 N10       30.12R                  
NEW YORK       FAIR      39  16  39 N10       30.31R WCI  32          
NEWARK         FAIR      39  14  36 N13       30.30R WCI  31          
CHICAGO        PTSUNNY   31  25  78 NW7       30.36R WCI  24          
HARTFORD       FAIR      36  15  42 NW9       30.24S WCI  29          
BOSTON         FAIR      35  13  40 NW12      30.24S WCI  27          
DALLAS         MOSUNNY   51  39  63 CALM      30.32R                  
PHILADELPHIA   PTSUNNY   40  14  34 E10       30.32R WCI  33          
LOS ANGELES    PTCLDY    58  49  72 SE5       29.97R                  
WASHINGTON DC  CLOUDY    41  23  48 NW7       30.27R